STARLINK-1267 (45384 NORAD) Tracking and Keplerian Element Data

This shows tracking and keplerian element data for the satellite.

Feedback or suggestion? Click here.




ElementValue
Catalog45384
NameSTARLINK-1267
Epoch Orbit1754
Epoch Day187.50002315
Epoch Year2020
RAAN93.5217
Inclination53.0008
Eccentricity0.0001836
Argument of Perigee86.2567
Mean Anonmoly215.6325
Mean Motion15.05563279
Decay Rate-3.002E-05
L11 45384U 20019AA 20187.50002315 -.00003002 00000-0 -18702-3 0 9998
L22 45384 53.0008 93.5217 0001836 86.2567 215.6325 15.05563279 17545

Live tracking and technical data element details for STARLINK-1267 (NORAD 45384). STARLINK-1267 can be tracked NOW for your location showing map with azimuth and elevation plus other details from your city location.

Track the satellite on the map from your city or location and see movement details for azimuth, elevation, latitude, longitude, range, height, and movement on the map or in text.







IsCatalogInMostPopularTable: catalog: 45384, numindb: 20
Update: records affected: 1



GetName: 45384 STARLINK-1267

Hit Count: updated at: Mon, 06 Jul 2020 05:37:17 GMT